This demonstration page uses our WeatherBlox Daily Observations layout. Learn more.

Left ArrowRight Arrow

38.20091, -84.87328

Hourly Observations for January 9, 2015

Temp ( °F °C ) Dew Point ( °F °C ) Humidity (%) Winds ( mph kmh ) Pressure ( in mb ) Visibility ( mi km ) Precip ( " mm )
12:53 am 00:53 Cloudy 27 -2.8 -1 -18.3 29 29 WSW 17 28 30.12 1020 10 16 0.00 0.00
1:53 am 01:53 Cloudy 27 -2.8 0 -17.8 31 31 WSW 15 24 30.13 1020 10 16 0.00 0.00
2:53 am 02:53 Cloudy 26 -3.3 6 -14.4 42 42 WSW 16 26 30.15 1021 10 16 0.00 0.00
3:53 am 03:53 Cloudy 26 -3.3 6 -14.4 42 42 WSW 14 22 30.16 1021 10 16 0.00 0.00
4:53 am 04:53 Cloudy 26 -3.3 6 -14.4 42 42 WSW 15 24 30.17 1022 10 16 0.00 0.00
5:53 am 05:53 Cloudy 25 -3.9 7 -13.9 46 46 W 10 17 30.19 1022 10 16 0.00 0.00
6:53 am 06:53 Cloudy 25 -3.9 9 -12.8 50 50 W 9 15 30.21 1023 10 16 0.00 0.00
7:53 am 07:53 Cloudy 25 -3.9 10 -12.2 53 53 WNW 9 15 30.24 1024 10 16 0.00 0.00
8:53 am 08:53 Cloudy 23 -5 13 -10.6 65 65 WNW 10 17 30.29 1026 10 16 0.00 0.03
9:10 am 09:10 Cloudy 21 -6.1 11 -11.7 65 65 WNW 8 13 30.33 1027 10 16 0.00 0.00
9:39 am 09:39 Partly Cloudy 21 -6.1 8 -13.3 57 57 WNW 10 17 30.36 1028 10 16 0.00 0.00
9:53 am 09:53 Sunny 20 -6.7 7 -13.9 57 57 NW 14 22 30.34 1027 10 16 0.00 0.00
10:53 am 10:53 Sunny 20 -6.7 4 -15.6 50 50 W 14 22 30.36 1028 10 16 0.00 0.00
11:53 am 11:53 Sunny 21 -6.1 4 -15.6 47 47 W 13 20 30.36 1028 10 16 0.00 0.00
12:53 pm 12:53 Sunny 21 -6.1 2 -16.7 43 43 WNW 13 20 30.34 1027 10 16 0.00 0.00
1:53 pm 13:53 Sunny 22 -5.6 1 -17.2 40 40 W 9 15 30.33 1027 10 16 0.00 0.00
2:53 pm 14:53 Sunny 22 -5.6 -3 -19.4 33 33 WNW 9 15 30.35 1028 10 16 0.00 0.00
3:53 pm 15:53 Sunny 22 -5.6 -2 -18.9 35 35 WNW 13 20 30.37 1029 10 16 0.00 0.00
4:53 pm 16:53 Sunny 21 -6.1 -2 -18.9 36 36 W 9 15 30.38 1029 10 16 0.00 0.00
5:53 pm 17:53 Clear 19 -7.2 -1 -18.3 41 41 WSW 6 9 30.40 1029 10 16 0.00 0.00
6:53 pm 18:53 Clear 18 -7.8 -1 -18.3 43 43 W 8 13 30.42 1030 10 16 0.00 0.00
7:53 pm 19:53 Clear 17 -8.3 -4 -20 39 39 WNW 8 13 30.47 1032 10 16 0.00 0.00
8:53 pm 20:53 Clear 15 -9.4 -4 -20 42 42 WNW 6 9 30.50 1033 10 16 0.00 0.00
9:53 pm 21:53 Clear 13 -10.6 -4 -20 46 46 WNW 5 7 30.53 1034 10 16 0.00 0.00
10:53 pm 22:53 Clear 11 -11.7 -3 -19.4 53 53 W 3 6 30.53 1034 10 16 0.00 0.00
11:53 pm 23:53 Clear 11 -11.7 -3 -19.4 53 53 W 3 6 30.54 1034 10 16 0.00 0.00

Powered by AerisWeather